Location: Cicognara
(44.9500°N, 10.4667°E)
Time: 05:10:46
(UTC+00:00)

Cosmos 1943 Rocket - Pass Details

Date: 20 June 2021
Orbit: 813 x 843 km, 71.0° (Epoch: 28 July)

Event Time Altitude Azimuth Distance (km) Brightness Sun altitude
Rises 21:35:49 0° 343° (NNW) 3,347 7.0 -17.6°
Reaches altitude 10° 21:38:57 10° 0° (N) 2,412 5.6 -17.8°
Maximum altitude 21:42:53 19° 46° (NE) 1,835 4.2 -18.1°
Drops below altitude 10° 21:46:47 10° 92° (E) 2,409 4.3 -18.4°
Enters shadow 21:47:28 - 97° (E) 2,590 4.5 -18.4°
